Vineland (AU8), Ontario

7:15 AM EDT on May 20, 2018 (GMT -0400)
Vineland (AU8)

Weather History for CXVN - November, 2012

Change the Weather History Date:

Friday, November 23, 2012

  Actual Average (CYSN) Record (CYSN)
Temperature  
Mean Temperature 46 °F -  
Max Temperature 56 °F 43 °F 66 °F (2003)
Min Temperature 34 °F 33 °F 19 °F (2000)
Degree Days  
Heating Degree Days 20    
Moisture  
Dew Point 36 °F    
Average Humidity 63    
Maximum Humidity 89    
Minimum Humidity 41    
Precipitation  
Precipitation 0.03 in - - ()
Sea Level Pressure  
Sea Level Pressure 29.70 in    
Wind  
Wind Speed 14 mph ()    
Max Wind Speed 20 mph    
Max Gust Speed 30 mph    
Averages and records for this station are not official NWS values.
T = Trace of Precipitation, MM = Missing Value Source: Averaged Metar Reports

Daily Weather History Graph

Daily Weather History Graph

Search for Another Location

Airport or City:

Astronomy

Nov. 23, 2012 Rise Set
Actual Time 7:21 AM EST 4:46 PM EST
Civil Twilight 6:49 AM EST 5:18 PM EST
Nautical Twilight 6:14 AM EST 5:53 PM EST
Astronomical Twilight 5:40 AM EST 6:27 PM EST
Moon 2:06 PM EST (11/23) 2:31 AM EST (11/23)
Length of Visible Light 10h 28m
Length of Day
9h 25m
Waxing Gibbous, 79% of the Moon is Illuminated
Nov 23
Waxing Gibbous
Nov 28
Full
Dec 6
Last Quarter
Dec 13
New
Dec 20
First Quarter

Hourly Weather History & Observations

Time (EST) Temp. Windchill Dew Point Humidity Pressure Visibility Wind Dir Wind Speed Gust Speed Precip Events Conditions
12:00 AM 52.3 °F - 37.0 °F 56% 29.87 in - SW 12.7 mph 19.6 mph N/A   Unknown
1:00 AM 53 °F - 36 °F 41% 29.81 in - SSW 16.1 mph - -  
1:00 AM 53.2 °F - 36.1 °F 52% 29.81 in - SSW 16.1 mph 23.0 mph N/A   Unknown
2:00 AM 54.9 °F - 36.9 °F 51% 29.78 in - SW 18.4 mph 27.6 mph N/A   Unknown
3:00 AM 54.3 °F - 37.4 °F 53% 29.77 in - SW 17.3 mph 25.3 mph N/A   Unknown
4:00 AM 55.2 °F - 37.6 °F 52% 29.73 in - SW 17.3 mph 24.2 mph N/A   Unknown
5:00 AM 54.1 °F - 38.8 °F 56% 29.71 in - SW 16.1 mph 23.0 mph N/A   Unknown
6:00 AM 52.7 °F - 39.4 °F 61% 29.68 in - SW 13.8 mph 20.7 mph N/A   Unknown
7:00 AM 54 °F - 40 °F 47% 29.66 in - SSW 13.8 mph - -  
7:00 AM 53.6 °F - 39.7 °F 59% 29.66 in - SSW 13.8 mph - N/A   Unknown
8:00 AM 52.0 °F - 44.2 °F 75% 29.66 in - SW 18.4 mph 26.5 mph N/A   Unknown
9:00 AM 50.0 °F - 46.8 °F 89% 29.66 in - SW 15.0 mph 25.3 mph N/A   Unknown
10:00 AM 51.8 °F - 47.5 °F 85% 29.64 in - SW 12.7 mph 19.6 mph N/A   Unknown
11:00 AM 54.3 °F - 48.2 °F 80% 29.63 in - WSW 15.0 mph 24.2 mph N/A   Unknown
12:00 PM 55.9 °F - 41.0 °F 57% 29.61 in - WSW 15.0 mph 24.2 mph N/A   Unknown
1:00 PM 52 °F - 37 °F 45% 29.63 in - West 15.0 mph - -  
1:00 PM 52.3 °F - 37.0 °F 56% 29.63 in - West 15.0 mph 24.2 mph N/A   Unknown
2:00 PM 50.7 °F - 30.9 °F 47% 29.63 in - West 18.4 mph 27.6 mph N/A   Unknown
3:00 PM 48.2 °F - 32.0 °F 54% 29.64 in - West 15.0 mph 24.2 mph N/A   Unknown
4:00 PM 46.0 °F 39.9 °F 30.9 °F 56% 29.66 in - West 13.8 mph 21.9 mph N/A   Unknown
5:00 PM 44.1 °F 36.8 °F 31.8 °F 62% 29.67 in - WSW 16.1 mph 24.2 mph N/A   Unknown
6:00 PM 40.3 °F 31.0 °F 34.5 °F 80% 29.68 in - WSW 19.6 mph 29.9 mph N/A   Unknown
7:00 PM 36 °F - 30 °F 73% 29.73 in - West 16.1 mph - -  
7:00 PM 36.0 °F 26.3 °F 30.4 °F 80% 29.73 in - West 16.1 mph 25.3 mph 0.03 in   Unknown
8:00 PM 35.8 °F 26.9 °F 28.8 °F 76% 29.75 in - West 13.8 mph 24.2 mph N/A   Unknown
9:00 PM 35.1 °F 25.2 °F 26.4 °F 71% 29.74 in - West 16.1 mph 26.5 mph N/A   Unknown
10:00 PM 35.1 °F 24.8 °F 26.1 °F 70% 29.74 in - West 17.3 mph 27.6 mph N/A   Unknown
11:00 PM 34.7 °F 24.3 °F 26.1 °F 71% 29.75 in - West 17.3 mph 26.5 mph N/A   Unknown